Regional Weather Roundup
Issued by NWS

Home | Current Version | Previous Version | Text Only | Print | Product List | Glossary On
Versions: 1 2 3 4 5 6 7 8 9 10 11 12 13 14 15 16 17 18 19 20 21 22 23 24 25 26 27 28 29 30 31 32 33 34 35 36 37 38 39 40 41 42 43 44 45 46 47 48 49 50
000
ASUS43 KLMK 061902
RWRKY
KENTUCKY REGIONAL WEATHER ROUNDUP
NATIONAL WEATHER SERVICE LOUISVILLE KY
300 PM EDT FRI MAY 06 2016

NOTE "FAIR" INDICATES FEW OR NO CLOUDS BELOW 12,000 FEET
WITH NO SIGNIFICANT WEATHER AND/OR OBSTRUCTIONS TO VISIBILITY.

KYZ001>023-026-027-061>063-070>075-062000-
WESTERN AND SOUTH CENTRAL KENTUCKY

CITY           SKY/WX    TMP DP  RH WIND       PRES   REMARKS
PADUCAH        SUNNY     73  43  33 VRB5      30.03F
HENDERSON      SUNNY     72  46  40 NW13      30.01F
OWENSBORO      MOSUNNY   69  42  37 NW8       30.01F
HOPKINSVILLE   MOSUNNY   69  48  46 W8        30.02F
BOWLING GREEN  MOSUNNY   70  43  37 NW9       30.00F
GLASGOW        NOT AVBL
$$

KYZ024-025-028>034-038-045-046-053-062000-
NORTH CENTRAL KENTUCKY

CITY           SKY/WX    TMP DP  RH WIND       PRES   REMARKS
LOUISVILLE/SDF MOSUNNY   71  41  33 NW8       29.97F
LOUISVILLE/LOU SUNNY     71  39  31 N8        29.97F
FORT KNOX      SUNNY     69  40  35 W9        29.96F
$$

KYZ035>037-039>044-047>052-055>060-089>105-062000-
NORTHEAST KENTUCKY

CITY           SKY/WX    TMP DP  RH WIND       PRES   REMARKS
LEXINGTON      MOSUNNY   69  43  38 N15G21    29.95F
COVINGTON      PTSUNNY   69  43  38 N14G22    29.94F
FRANKFORT      PTSUNNY   68  42  38 NW15G21   29.95F
$$

KYZ054-064>069-076>088-106>120-062000-
SOUTHEAST KENTUCKY

CITY           SKY/WX    TMP DP  RH WIND       PRES   REMARKS
JACKSON        CLOUDY    63  39  41 N8        29.92F
LONDON         PTSUNNY   65  36  34 N15G26    29.94F
SOMERSET       NOT AVBL
MIDDLESBORO    NOT AVBL
MONTICELLO     MOCLDY    66  47  50 N12G18    29.98F
$$




USA.gov is the U.S. government's official web portal to all federal, state and local government web resources and services.